TimeCDT,TemperatureF,Dew PointF,Humidity,Sea Level PressureIn,VisibilityMPH,Wind Direction,Wind SpeedMPH,Gust SpeedMPH,PrecipitationIn,Events,Conditions,WindDirDegrees,DateUTC
12:55 AM,81.0,68.0,65,29.88,10.0,SSE,15.0,-,N/A,,Clear,150,2013-07-14 05:55:00
1:21 AM,80.6,69.8,70,29.96,10.0,East,16.1,21.9,N/A,Thunderstorm,Scattered Clouds,100,2013-07-14 06:21:00
1:55 AM,73.9,70.0,87,29.96,10.0,East,17.3,24.2,0.00,Rain,Light Rain,80,2013-07-14 06:55:00
2:02 AM,73.4,69.8,88,29.99,8.0,ESE,21.9,29.9,0.00,Rain,Light Rain,110,2013-07-14 07:02:00
2:09 AM,73.4,69.8,88,29.98,3.0,SE,27.6,34.5,0.08,Rain-Thunderstorm,Heavy Rain,130,2013-07-14 07:09:00
2:55 AM,72.0,69.1,91,29.91,9.0,SSE,18.4,27.6,0.17,Rain-Thunderstorm,Light Rain,160,2013-07-14 07:55:00
3:06 AM,71.6,69.8,94,29.96,10.0,SSE,20.7,-,0.00,,Mostly Cloudy,160,2013-07-14 08:06:00
3:33 AM,71.6,68.0,88,29.99,10.0,SE,13.8,-,0.00,Thunderstorm,Scattered Clouds,130,2013-07-14 08:33:00
3:48 AM,71.6,68.0,88,30.04,10.0,NNE,15.0,20.7,0.00,,Mostly Cloudy,30,2013-07-14 08:48:00
3:55 AM,72.0,68.0,87,29.96,9.0,East,16.1,-,0.00,Rain,Light Rain,80,2013-07-14 08:55:00
4:02 AM,71.6,68.0,88,30.03,7.0,East,11.5,23.0,0.00,Rain-Thunderstorm,Thunderstorms and Rain,90,2013-07-14 09:02:00
4:29 AM,69.8,68.0,94,29.99,3.0,SSE,19.6,-,0.10,Rain-Thunderstorm,Thunderstorms and Rain,150,2013-07-14 09:29:00
4:55 AM,70.0,68.0,93,29.95,6.0,SSW,17.3,-,0.13,Rain-Thunderstorm,Light Thunderstorms and Rain,200,2013-07-14 09:55:00
5:16 AM,69.8,68.0,94,29.96,6.0,SSE,15.0,-,0.04,Rain,Light Rain,150,2013-07-14 10:16:00
5:55 AM,71.1,66.9,87,29.95,10.0,SW,4.6,-,0.04,,Scattered Clouds,220,2013-07-14 10:55:00
6:55 AM,70.0,68.0,93,29.93,6.0,SE,5.8,-,0.01,,Scattered Clouds,140,2013-07-14 11:55:00
7:21 AM,69.8,68.0,94,29.97,5.0,ESE,9.2,-,N/A,,Partly Cloudy,110,2013-07-14 12:21:00
7:55 AM,70.0,66.9,90,29.94,8.0,ESE,9.2,-,N/A,,Clear,120,2013-07-14 12:55:00
8:55 AM,72.0,68.0,87,29.94,10.0,SSE,9.2,-,N/A,,Clear,150,2013-07-14 13:55:00
9:55 AM,72.0,68.0,87,29.97,10.0,ESE,9.2,-,N/A,,Mostly Cloudy,120,2013-07-14 14:55:00
10:55 AM,73.0,68.0,84,30.00,10.0,ESE,10.4,-,N/A,,Mostly Cloudy,120,2013-07-14 15:55:00
11:55 AM,73.9,68.0,82,30.01,10.0,SE,10.4,-,N/A,,Mostly Cloudy,140,2013-07-14 16:55:00
12:55 PM,77.0,69.1,76,30.01,10.0,SE,10.4,-,N/A,,Overcast,130,2013-07-14 17:55:00
1:55 PM,75.9,69.1,79,30.03,10.0,ESE,6.9,-,N/A,,Overcast,120,2013-07-14 18:55:00
2:55 PM,77.0,68.0,74,30.03,10.0,SE,8.1,-,0.00,,Overcast,130,2013-07-14 19:55:00
3:55 PM,80.1,64.9,60,30.01,10.0,Calm,Calm,-,N/A,,Partly Cloudy,0,2013-07-14 20:55:00
4:55 PM,82.9,66.0,56,29.99,10.0,West,4.6,-,N/A,,Clear,260,2013-07-14 21:55:00
5:55 PM,84.9,57.0,38,29.98,10.0,East,11.5,-,N/A,,Clear,100,2013-07-14 22:55:00
6:55 PM,84.0,57.0,40,29.99,10.0,East,10.4,-,N/A,,Clear,100,2013-07-14 23:55:00
7:55 PM,81.0,57.9,45,30.00,10.0,ESE,5.8,-,N/A,,Clear,110,2013-07-15 00:55:00
8:55 PM,75.9,60.1,58,30.02,10.0,East,3.5,-,N/A,,Clear,90,2013-07-15 01:55:00
9:55 PM,73.0,60.1,64,30.06,10.0,East,3.5,-,N/A,,Clear,100,2013-07-15 02:55:00
10:55 PM,68.0,60.1,76,30.08,10.0,ESE,4.6,-,N/A,,Clear,120,2013-07-15 03:55:00
11:55 PM,68.0,59.0,73,30.10,10.0,East,4.6,-,N/A,,Clear,100,2013-07-15 04:55:00